Content
SEND FEEDBACK

Daily
Averages
Monthly
Summary
United States of America

ACHANG BAY, GUAM


Home > North America > United States > Guam
Elevation: 30 feet     Latitude: 13 16N     Longitude: 144 45E

WEATHER
 
SELECT A DAY
Number of Records: 357,078;   Date Range: 1/1/95 - 12/24/14
 
SHARE

PRINT THIS DATA

[ ← Previous Day ]
WEATHER ALMANAC - MARCH 12, 2014
[ Next Day → ]
[ °C ]   °F
Weather ElementAverageHighLow
Temperature78.6 °F82.4 °F (11:38 am)75.2 °F (2:58 am)
Dewpoint70.9 °F73.4 °F (2:38 am)68 °F (6:58 pm)
Humidity77.2 %89 % (2:38 am)66 % (12:14 pm)
Barometer29.99 in30.04 in (9:03 am)29.92 in (2:58 pm)
Wind Speed23.8 mph29.9 mph (10:13 am)
Wind Gust38 mph (10:18 am)
Weather ElementAverage
Visibility9.9 mi
Wind DirectionNE (49.8 °)

Weather ElementTotal
Precipitation---
Cooling Degree Days13.8 (Base 65)
Growing Degree Days28.8 (Base 50)
Averaged from 90 records on March 12, 2014
WEATHER CONDITIONS BREAKOUT
WIND DIRECTION BREAKOUT
WEATHER BY HOUR - MARCH 12, 2014
[ °C ]   °F
Local TimeTemperatureDewpointHumidityBarometerVisibilityWind DirectionWind SpeedGust SpeedPrecipitationEventsConditions
12:38 AM77.0 °F71.6 °F83 %30.02 in10.0 miNE (50°)23.0 mph27.6 mphScattered Clouds
12:58 AM77.4 °F71.8 °F83 %29.99 in10.0 miNE (50°)18.4 mphScattered Clouds
1:08 AM77.0 °F71.6 °F83 %30.02 in10.0 miENE (60°)20.7 mph34.5 mphMostly Cloudy
1:13 AM77.0 °F71.6 °F83 %30.02 in10.0 miNE (50°)19.6 mphMostly Cloudy
1:23 AM77.0 °F71.6 °F83 %30.01 in10.0 miNE (40°)20.7 mph27.6 mphMostly Cloudy
1:26 AM77.0 °F71.6 °F83 %30.02 in6.0 miNE (50°)23.0 mph28.8 mphRainLight Rain
1:31 AM77.0 °F71.6 °F83 %30.01 in6.0 miENE (60°)19.6 mph28.8 mphRainLight Rain
1:38 AM77.0 °F71.6 °F83 %30.01 in10.0 miENE (60°)24.2 mph27.6 mphMostly Cloudy
1:43 AM77.0 °F71.6 °F83 %30.01 in10.0 miNE (50°)21.9 mph29.9 mphMostly Cloudy
1:53 AM77.0 °F69.8 °F78 %30.01 in10.0 miNE (50°)21.9 mph29.9 mphMostly Cloudy
1:58 AM76.8 °F70.7 °F81 %29.99 in10.0 miNE (50°)20.7 mph29.9 mph0.00 inMostly Cloudy
2:33 AM77.0 °F71.6 °F83 %29.99 in10.0 miNE (40°)21.9 mph27.6 mphMostly Cloudy
2:38 AM77.0 °F73.4 °F89 %29.99 in10.0 miNE (50°)20.7 mph27.6 mphMostly Cloudy
2:53 AM77.0 °F71.6 °F83 %29.99 in10.0 miNE (50°)27.6 mphMostly Cloudy
2:58 AM75.2 °F71.6 °F89 %29.96 in10.0 miENE (60°)25.3 mphMostly Cloudy
3:03 AM75.2 °F71.6 °F89 %29.99 in10.0 miNE (50°)20.7 mph28.8 mphMostly Cloudy
3:08 AM75.2 °F71.6 °F89 %29.99 in10.0 miNE (50°)20.7 mph28.8 mphMostly Cloudy
3:18 AM77.0 °F71.6 °F83 %29.99 in10.0 miNE (50°)24.2 mph32.2 mphOvercast
3:38 AM77.0 °F69.8 °F78 %29.98 in10.0 miNE (40°)19.6 mph29.9 mphMostly Cloudy
3:57 AM77.0 °F71.6 °F83 %29.98 in10.0 miNE (40°)23.0 mph29.9 mphRainLight Rain
3:58 AM77.0 °F71.6 °F83 %29.96 in10.0 miNE (40°)23.0 mph29.9 mphRainLight Rain
4:08 AM77.0 °F73.4 °F89 %29.97 in10.0 miNE (50°)25.3 mph31.1 mphLight Drizzle
4:13 AM77.0 °F71.6 °F83 %29.97 in10.0 miNE (50°)24.2 mph31.1 mphLight Drizzle
4:16 AM77.0 °F71.6 °F83 %29.97 in10.0 miNE (50°)21.9 mph32.2 mphScattered Clouds
4:56 AM77.0 °F71.6 °F83 %29.97 in10.0 miNE (50°)24.2 mph31.1 mphMostly Cloudy
4:58 AM77.2 °F71.1 °F81 %29.94 in10.0 miNE (50°)26.5 mph32.2 mph0.00 inMostly Cloudy
5:03 AM77.0 °F71.6 °F83 %29.97 in10.0 miNE (50°)24.2 mph32.2 mphMostly Cloudy
5:13 AM77.0 °F71.6 °F83 %29.97 in10.0 miNE (50°)25.3 mph31.1 mphMostly Cloudy
5:38 AM77.0 °F71.6 °F83 %29.97 in10.0 miNE (50°)28.8 mph33.4 mphMostly Cloudy
5:58 AM77.0 °F70.9 °F81 %29.96 in10.0 miNE (50°)23.0 mph33.4 mphScattered Clouds
6:28 AM77.0 °F71.6 °F83 %29.99 in10.0 miNE (40°)24.2 mph33.4 mphMostly Cloudy
6:38 AM77.0 °F69.8 °F78 %29.99 in10.0 miNE (40°)23.0 mph34.5 mphMostly Cloudy
6:43 AM77.0 °F69.8 °F78 %30.00 in10.0 miNE (50°)21.9 mph31.1 mphMostly Cloudy
6:58 AM77.2 °F71.2 °F82 %29.97 in10.0 miNE (40°)23.0 mph36.8 mphMostly Cloudy
7:13 AM77.0 °F71.6 °F83 %30.01 in10.0 miNE (40°)24.2 mph32.2 mphMostly Cloudy
7:18 AM77.0 °F69.8 °F78 %30.01 in10.0 miNE (40°)21.9 mph32.2 mphMostly Cloudy
7:33 AM77.0 °F69.8 °F78 %30.02 in10.0 miNE (50°)24.2 mph33.4 mphScattered Clouds
7:43 AM77.0 °F69.8 °F78 %30.02 in10.0 miNE (40°)24.2 mph34.5 mphMostly Cloudy
7:48 AM78.8 °F69.8 °F74 %30.02 in10.0 miNE (40°)24.2 mph34.5 mphMostly Cloudy
7:58 AM78.1 °F70.5 °F77 %29.99 in10.0 miNE (40°)26.5 mph33.4 mphMostly Cloudy
8:03 AM78.8 °F71.6 °F78 %30.02 in10.0 miNE (50°)26.5 mph33.4 mphMostly Cloudy
8:13 AM78.8 °F71.6 °F78 %30.02 in10.0 miNE (50°)23.0 mph32.2 mphScattered Clouds
8:23 AM78.8 °F69.8 °F74 %30.03 in10.0 miNE (50°)26.5 mph31.1 mphMostly Cloudy
8:33 AM78.8 °F69.8 °F74 %30.03 in10.0 miNE (50°)27.6 mph35.7 mphScattered Clouds
8:58 AM79.2 °F71.6 °F78 %30.01 in10.0 miNE (50°)24.2 mphScattered Clouds
9:03 AM78.8 °F71.6 °F78 %30.04 in10.0 miNE (40°)21.9 mph31.1 mphMostly Cloudy
9:08 AM78.8 °F69.8 °F74 %30.04 in10.0 miNE (50°)23.0 mph33.4 mphScattered Clouds
9:58 AM80.6 °F71.2 °F73 %30.01 in10.0 miNE (50°)21.9 mph33.4 mphMostly Cloudy
10:08 AM80.6 °F71.6 °F74 %30.04 in10.0 miNE (50°)25.3 mph33.4 mphMostly Cloudy
10:13 AM80.6 °F71.6 °F74 %30.04 in10.0 miNE (50°)29.9 mphMostly Cloudy
10:18 AM80.6 °F71.6 °F74 %30.04 in10.0 miENE (60°)26.5 mph38.0 mphMostly Cloudy
10:23 AM80.6 °F71.6 °F74 %30.04 in10.0 miNE (50°)23.0 mph38.0 mphMostly Cloudy
10:28 AM80.6 °F71.6 °F74 %30.04 in10.0 miNE (50°)26.5 mph33.4 mphScattered Clouds
10:43 AM80.6 °F71.6 °F74 %30.04 in10.0 miNE (40°)21.9 mph34.5 mphMostly Cloudy
10:58 AM80.4 °F70.7 °F72 %30.00 in10.0 miNE (40°)26.5 mph36.8 mphMostly Cloudy
11:13 AM80.6 °F71.6 °F74 %30.03 in10.0 miNE (50°)25.3 mph31.1 mphMostly Cloudy
11:33 AM80.6 °F71.6 °F74 %30.02 in10.0 miNE (50°)26.5 mph33.4 mphMostly Cloudy
11:38 AM82.4 °F71.6 °F70 %30.02 in10.0 miNE (50°)21.9 mph33.4 mphMostly Cloudy
11:43 AM82.4 °F71.6 °F70 %30.02 in10.0 miNE (50°)24.2 mph32.2 mphScattered Clouds
11:52 AM80.6 °F71.6 °F74 %30.01 in9.0 miNE (50°)29.9 mph36.8 mphRainLight Rain
11:58 AM79.2 °F72.7 °F80 %29.99 in9.0 miNE (50°)26.5 mph36.8 mph0.00 inLight Drizzle
12:03 PM78.8 °F71.6 °F78 %30.01 in10.0 miNE (50°)24.2 mph33.4 mphLight Drizzle
12:04 PM78.8 °F71.6 °F78 %30.01 in10.0 miENE (60°)25.3 mph33.4 mphMostly Cloudy
12:09 PM80.6 °F69.8 °F70 %30.00 in10.0 miNE (50°)24.2 mph33.4 mphMostly Cloudy
12:14 PM82.4 °F69.8 °F66 %30.00 in10.0 miNE (50°)23.0 mph33.4 mphMostly Cloudy
12:24 PM82.4 °F71.6 °F70 %30.00 in10.0 miNE (50°)24.2 mph34.5 mphMostly Cloudy
12:34 PM80.6 °F71.6 °F74 %29.99 in10.0 miNE (40°)24.2 mph31.1 mphMostly Cloudy
12:49 PM80.6 °F71.6 °F74 %29.99 in10.0 miNE (50°)24.2 mph32.2 mphMostly Cloudy
12:58 PM81.0 °F70.9 °F71 %29.96 in10.0 miNE (50°)23.0 mph32.2 mph0.00 inMostly Cloudy
1:03 PM80.6 °F69.8 °F70 %29.99 in10.0 miNE (50°)20.7 mph31.1 mphMostly Cloudy
1:18 PM80.6 °F69.8 °F70 %29.98 in10.0 miNE (50°)24.2 mph29.9 mphMostly Cloudy
1:23 PM80.6 °F71.6 °F74 %29.98 in10.0 miNE (50°)23.0 mph31.1 mphMostly Cloudy
1:38 PM80.6 °F69.8 °F70 %29.98 in10.0 miNE (50°)23.0 mph32.2 mphMostly Cloudy
1:58 PM81.1 °F70.7 °F70 %29.94 in10.0 miNE (50°)20.7 mph32.2 mphPartly Cloudy
2:50 PM80.6 °F71.6 °F74 %29.95 in10.0 miNE (50°)21.9 mph34.5 mphMostly Cloudy
2:55 PM80.6 °F69.8 °F70 %29.95 in10.0 miNE (50°)24.2 mph34.5 mphMostly Cloudy
2:58 PM80.1 °F70.7 °F73 %29.92 in10.0 miNE (50°)26.5 mph34.5 mphScattered Clouds
3:47 PM80.6 °F69.8 °F70 %29.95 in10.0 miNE (50°)28.8 mph34.5 mphMostly Cloudy
3:52 PM80.6 °F69.8 °F70 %29.95 in10.0 miNE (50°)27.6 mph35.7 mphScattered Clouds
3:58 PM80.4 °F69.3 °F69 %29.92 in10.0 miNE (50°)25.3 mph35.7 mphScattered Clouds
4:13 PM80.6 °F69.8 °F70 %29.95 in10.0 miNE (50°)25.3 mph33.4 mphMostly Cloudy
4:18 PM80.6 °F69.8 °F70 %29.96 in10.0 miNE (50°)25.3 mph34.5 mphMostly Cloudy
4:58 PM79.5 °F70.3 °F73 %29.94 in10.0 miENE (60°)24.2 mph31.1 mphPartly Cloudy
5:58 PM78.4 °F68.7 °F72 %29.94 in10.0 miENE (60°)23.0 mphPartly Cloudy
6:58 PM77.0 °F68.0 °F74 %29.96 in10.0 miENE (60°)21.9 mph28.8 mphMostly Cloudy
7:58 PM77.4 °F68.0 °F73 %29.97 in10.0 miENE (70°)21.9 mph28.8 mphScattered Clouds
8:58 PM77.2 °F68.4 °F74 %29.99 in10.0 miENE (60°)21.9 mph24.2 mphPartly Cloudy
9:58 PM77.0 °F68.7 °F75 %29.99 in10.0 miENE (60°)23.0 mphPartly Cloudy
10:58 PM77.2 °F68.5 °F75 %29.99 in10.0 miENE (60°)24.2 mphMostly Cloudy
11:58 PM76.8 °F69.1 °F77 %29.99 in10.0 miENE (60°)19.6 mph27.6 mphScattered Clouds
Hourly data recorded from PGUA, located miles away from Achang Bay, Guam







STORIES FROM OUR PARTNERS